Location: Brivio
(45.7333°N, 9.4500°E)
Time: 06:24:53
(UTC+00:00)

Lacrosse 5 rocket - Pass Details

Date: 18 October 2019
Orbit: 459 x 639 km, 57.0° (Epoch: 12 November)

Event Time Altitude Azimuth Distance (km) Brightness Sun altitude
Rises 17:48:16 0° 298° (WNW) 2,554 5.9 -14.1°
Reaches altitude 10° 17:50:46 10° 282° (WNW) 1,697 5.2 -14.5°
Maximum altitude 17:53:38 21° 233° (SW) 1,205 3.7 -15.0°
Drops below altitude 10° 17:56:37 10° 184° (S) 1,764 3.9 -15.5°
Sets 17:59:17 0° 168° (SSE) 2,688 4.7 -16.0°
